G4GVZ-1 Weather Reports


time (UTC)temp
C
wind
direction
speed
KPH
gust
KPH
rain 1hr
cm
rain 24hr
cm
rain mn
cm
humidity
%
barometer
mb
20260505153049 15 359 4.8 17.7 0.00 0.00 0.00 58 1012.4
20260505151549 14 15 4.8 14.5 0.00 0.00 0.00 58 1012.5
20260505124550 15 14 4.8 17.7 0.00 0.00 0.00 53 1012.8
20260505123050 15 13 4.8 16.1 0.00 0.00 0.00 55 1012.8
20260505121550 15 356 4.8 20.9 0.00 0.00 0.00 54 1012.9
20260505120050 15 359 4.8 17.7 0.00 0.00 0.00 55 1013.0
20260505114549 14 356 6.4 19.3 0.00 0.00 0.00 58 1013.0
20260505113050 14 359 1.6 14.5 0.00 0.00 0.00 59 1013.1
20260505111550 14 347 4.8 19.3 0.00 0.00 0.00 61 1013.1
20260505101550 13 5 4.8 20.9 0.00 0.00 0.00 67 1013.6
20260505100050 13 13 3.2 14.5 0.00 0.00 0.00 67 1013.6
20260505094550 13 4 6.4 24.1 0.00 0.00 0.00 69 1013.7
20260505093050 12 18 6.4 20.9 0.00 0.00 0.00 69 1013.6
20260505092702 12 0 0.0 0.0 0.28 0.28 0.28 93 1010.6
20260505091549 12 10 3.2 17.7 0.00 0.00 0.00 72 1013.7
20260505090050 11 6 4.8 20.9 0.00 0.00 0.00 72 1013.9
20260505084550 11 8 3.2 16.1 0.00 0.00 0.00 76 1014.1
20260505083049 10 2 3.2 16.1 0.00 0.00 0.00 80 1014.1
20260505081549 10 4 6.4 20.9 0.00 0.00 0.00 81 1014.3
20260505080051 10 16 4.8 17.7 0.00 0.00 0.00 82 1014.2
20260505074551 10 21 3.2 16.1 0.00 0.00 0.00 83 1014.1
20260505073050 10 25 3.2 16.1 0.00 0.00 0.00 84 1014.1
20260505071550 10 34 3.2 16.1 0.00 0.00 0.00 84 1014.1
20260505070050 10 36 1.6 9.7 0.00 0.00 0.00 85 1014.0
20260505064547 9 63 0.0 8.0 0.00 0.00 0.00 87 1014.1
20260505063047 8 67 1.6 14.5 0.00 0.00 0.00 89 1013.9
20260505061547 8 76 1.6 9.7 0.00 0.00 0.00 90 1014.0
20260505060047 8 76 0.0 4.8 0.00 0.00 0.00 93 1014.2
20260505054546 8 0 0.0 0.0 0.00 0.00 0.00 95 1014.2
20260505053046 8 0 0.0 0.0 0.00 0.00 0.00 96 1014.4
20260505051548 7 0 0.0 0.0 0.00 0.00 0.00 95 1014.3
20260505041548 7 0 0.0 0.0 0.00 0.00 0.00 94 1013.9
20260505040047 8 0 0.0 0.0 0.00 0.00 0.00 94 1013.9
20260505034547 8 0 0.0 0.0 0.00 0.00 0.00 94 1013.9
20260505033047 8 0 0.0 0.0 0.00 0.00 0.00 93 1014.1
20260505031546 8 77 0.0 6.4 0.00 0.00 0.00 92 1014.1
20260505030046 9 0 0.0 0.0 0.00 0.00 0.00 90 1014.0
20260505024549 9 0 0.0 0.0 0.00 0.00 0.00 91 1013.9
20260505023049 9 0 0.0 0.0 0.00 0.00 0.00 92 1014.0
20260505021548 8 0 0.0 0.0 0.00 0.00 0.00 93 1014.3
20260505020048 8 0 0.0 0.0 0.00 0.00 0.00 93 1014.3
20260505014548 8 0 0.0 0.0 0.00 0.00 0.00 93 1014.3
20260505013048 8 0 0.0 0.0 0.00 0.00 0.00 92 1014.4
20260505011548 8 0 0.0 0.0 0.00 0.00 0.00 93 1014.5
20260505010047 8 0 0.0 0.0 0.00 0.00 0.00 93 1014.4
20260505004547 8 78 0.0 4.8 0.00 0.00 0.00 91 1014.4
20260505003049 8 0 0.0 0.0 0.00 0.00 0.00 90 1014.4
20260505001549 9 0 0.0 0.0 0.00 0.00 0.00 89 1014.5
20260505000048 9 0 0.0 0.0 0.00 0.00 0.00 88 1014.6
20260504234548 10 0 0.0 0.0 0.00 0.00 0.00 88 1014.8
20260504233048 10 0 0.0 0.0 0.00 0.00 0.00 87 1014.7
20260504231547 10 0 0.0 0.0 0.00 0.00 0.00 86 1014.5
20260504230047 10 0 0.0 0.0 0.00 0.00 0.00 86 1014.6
20260504224550 10 0 0.0 0.0 0.00 0.00 0.00 84 1014.8
20260504223050 11 0 0.0 0.0 0.00 0.00 0.00 83 1014.8
20260504221549 11 0 0.0 0.0 0.00 0.00 0.00 83 1014.9
20260504220049 11 0 0.0 0.0 0.00 0.05 0.00 82 1014.9
20260504214549 11 78 0.0 4.8 0.00 0.08 0.00 81 1014.9
20260504213049 11 78 0.0 6.4 0.00 0.13 0.00 81 1015.0
20260504211549 12 78 1.6 6.4 0.00 0.18 0.00 81 1014.9
20260504210048 12 78 6.4 14.5 0.00 0.36 0.00 80 1015.0
20260504204549 12 77 3.2 14.5 0.00 0.43 0.00 80 1015.0
20260504203049 12 77 1.6 6.4 0.00 0.43 0.00 80 1014.9
20260504201549 12 77 4.8 12.9 0.00 0.43 0.00 79 1014.8
20260504200049 13 77 4.8 12.9 0.00 0.43 0.00 78 1014.6
20260504194549 13 77 3.2 9.7 0.00 0.43 0.00 78 1014.5
20260504193048 13 77 3.2 9.7 0.00 0.43 0.00 77 1014.1
20260504191548 13 76 6.4 14.5 0.00 0.43 0.00 76 1014.0
20260504190050 14 75 4.8 17.7 0.00 0.43 0.00 74 1014.0
20260504184551 15 74 4.8 16.1 0.00 0.43 0.00 73 1014.0
20260504183050 15 66 4.8 12.9 0.00 0.43 0.00 72 1013.9
20260504181550 15 66 3.2 9.7 0.00 0.43 0.00 71 1013.9
20260504180050 15 67 3.2 12.9 0.00 0.41 0.00 73 1013.8
20260504174549 15 69 1.6 14.5 0.00 0.41 0.00 74 1013.8
20260504173049 15 72 1.6 8.0 0.00 0.41 0.00 73 1013.8
20260504171551 15 74 1.6 9.7 0.00 0.41 0.00 73 1013.8